Погода в Утене

Погода в Утене : погода сейчас, прогноз погоды и архив. Всё, что Вы хотите узнать о погоде в Утене!

Поиск расширенной информации на нашем сайте:

Другие новости

Новости СМИ2

Главная страница сайта

Новости сайта

03.07.2017

Напоминаем, что на нашем специализированном сайте Метеоцентр.Азия вы можете получить высокодетализированные автоматические прогнозы погоды по пунктам России, СНГ и мира в авиационном формате (включающие направление и скорость ветра, видимость, явления погоды, количество и форму облачности, нижнюю и верхнюю границу облачности).

Рекомендуем: ветошь Спб

Погода в Утене - сегодня

Время (UTC), дата Ветер
(°,м/с) 
Видим.   Явления Облачность Т
(°С)
Тd
(°С)
f(%) Тe
(°С)
Pmin
(гПа)
dP
(гПа)
Po
(мм)
O2
(г/м3)
Тmin Tmax R s Состояние
почвы
09 13.01.18 160 (Ю) 1-3{03}  13000 м    3/0 верхняя 
[Ci sp]
-5.9 -8.1 84 -6  1045.6  0.9  774  320           
12 13.01.18 140 (ЮВ) 2-3{05}  20000 м    4/0 верхняя 
[Ci sp]
-3.8 -8.7 69 -5  1044.4  -1.1  773  317           
15 13.01.18 тихо () -2{04}  20000 м    1/0 верхняя 
[Ci sp]
-5.4 -9.2 75 -5  1044.1  -0.4  773  319           
18 13.01.18 090 (В) 1-3{04}  11000 м    8/8 330 м 
[St]
-7.6 -9.4 87 -7  1044  -0.2  772  321    -3.4       
21 13.01.18 130 (ЮВ) 2-4{06}  17000 м    10/10 210 м 
[St]
-8 -9.8 87 -10  1043.7  -0.3  772  322           
00 14.01.18 110 (В) 2-4{05}  18000 м  в посл. час снег  10/10 210 м 
[St]
-8.5 -10 89 -10  1043.1  -0.6  772  322      0.0     
03 14.01.18 170 (Ю) 2-4{05}  19000 м    10/10 240 м 
[St]
-8.7 -10.6 86 -10  1042.3  -0.8  771  322           
06 14.01.18 170 (Ю) 1-3{05}  20000 м  слаб. снег  10/10 240 м 
[Frnb|Ns]
-9.1 -11.1 85 -9  1041.9  -0.4  771  322  -9.1    0.0    замёрзшая 
09 14.01.18 110 (В) 3-5{06}  18000 м    10/10 300 м 
[Frnb|Ns]
-9 -11 85 -12  1041.7  -0.2  771  322           
12 14.01.18 130 (ЮВ) 3-5{06}  17000 м  слаб. снег  10/10 330 м 
[Frnb|Ns]
-8.5 -10.8 83 -11  1041.1  -0.6  770  321      0.0     
15 14.01.18 130 (ЮВ) 3-4{05}  19000 м  слаб. снег  10/10 360 м 
[Frnb|Ns]
-8.4 -11.2 80 -11  1040.1  -1  770  321           
18 14.01.18 160 (Ю) 1-3{06}  16000 м  слаб. снег  10/10 360 м 
[Frnb|Ns]
-8.5 -10.8 83 -8  1039.6  -0.5  769  321    -8.2  0.0     
21 14.01.18 150 (ЮВ) 4-6{06}  20000 м  слаб. снег  10/10 330 м 
[Frnb|Ns]
-8.9 -11.3 83 -13  1039.4  -0.2  769  321           
00 15.01.18 160 (Ю) 4-6{07}  20000 м  слаб. снег  10/10 360 м 
[Frnb|Ns]
-8.6 -11.4 80 -12  1038  -1.4  768  321      0.0     
03 15.01.18 170 (Ю) 3-6{07}  19000 м  слаб. снег  10/10 450 м 
[Ns]
-8 -11.2 78 -11  1036.8  -1.1  767  320           
06 15.01.18 180 (Ю) 4-7{07}  20000 м  слаб. снег  10/10 500 м 
[Ns]
-8.7 -12.5 74 -12  1035.8  -1.1  766  320  -8.9    0.0    замёрзшая 
09 15.01.18 170 (Ю) 3-5{07}  15000 м  слаб. снег  10/10 500 м 
[Ns]
-9 -12.9 73 -12  1034.7  -1  766  320           
12 15.01.18 140 (ЮВ) 4-6{07}  20000 м  {снег}  3/1 600 м верхняя 
[Sc|Ci sp]
-7.2 -12.5 66 -11  1031.6  -3  763  317      0.0     
15 15.01.18 150 (ЮВ) 4-6{08}  19000 м    4/3 600 м верхняя 
[Sc|Ci sp]
-9.4 -13.4 73 -13  1029.6  -2.1  762  319           
18 15.01.18 150 (ЮВ) 3-6{09}  17000 м    ясно 
-10.9 -13.7 80 -14  1027.7  -2  760  320    -6.8  0.0     
21 15.01.18 150 (ЮВ) 4-6{08}  15000 м  в посл. час снег  ясно 
-11.3 -13.3 85 -15  1025.7  -1.9  759  320           
00 16.01.18 150 (ЮВ) 4-8{08}  19000 м  {снег}  ясно 
-11 -13.8 80 -15  1023.3  -2.4  757  319      0.0     
03 16.01.18 150 (ЮВ) 5-9{10}  20000 м    ясно 
-10.7 -13.5 80 -16  1020  -3.2  755  318           
06 16.01.18 140 (ЮВ) 4-9{10}  20000 м    1/0 верхняя 
[Ci sp]
-10.4 -14 75 -14  1017.2  -2.8  752  316  -11.3    0.0    замёрзшая 
09 16.01.18 150 (ЮВ) 6-10{11}  20000 м    ясно 
-7.8 -15.1 56 -13  1015.3  -1.7  751  313           
Время (UTC), дата Ветер
(°,м/с) 
Видим.   Явления Облачность Т
(°С)
Тd
(°С)
f(%) Тe
(°С)
Pmin
(гПа)
dP
(гПа)
Po
(мм)
O2
(г/м3)
Тmin Tmax R s Состояние
почвы

Для получения пояснительной информации подведите курсор к названию столбца.

ПОГОДА в Утене - архив

Всё, что Вы хотите узнать о погоде в Утене - удобно и подробно!

Выберите нужную дату (начиная с 1 января 2015* года) и нажмите кнопку "Найти".
Будут отображены архивные сводки погоды по пункту Утена, начиная с указанной даты.


Отображать данные в формате CSV (для использования в таблицах Excel)


Внимание! Наш архив погоды предназначен исключительно для личного некоммерческого использования в познавательных целях. Если Вам необходимы официальные справки о состоянии погоды (для производственных, юридических, коммерческих и т.п. целей), обращайтесь в органы Росгидромета.

*Примечание: данная дата относится к архиву по метеостанциям СССР (Россия, СНГ, Балтия).
Архив по метеостанциям Зарубежной Европы и Азии (кроме Китая) хранится 10 дней, по другим регионам земного шара (Китай, Африка, Америка, Австралия, Океания) - 1 день.

Утена - район местоположения метеостанции


Название, широта, долгота, высота метеостанции:
Утена 55.5°ш. 25.6°д. 106 м над ур. моря [Литва]

Дополнительная информация

В oтличие oт бoльшинства пoгoдных сайтoв мы публикуем пoдрoбную метеoинфoрмацию в детальнoм прoфессиoнальнoм фoрмате.

Характеристики температуры и влажнoсти вoздуха измеряются на высoте 2 м в тени вдали oт зданий и деревьев.
Скoрoсть ветра измеряется на высoте 10 м (на урoвне рoста челoвека скoрoсть ветра ниже в 1.5-2 раза). Если метеoстанция нахoдится в гoрoде или в лесу, тo скoрoсть ветра занижена на 2-4 м/с пo сравнению с oткрытым местoм. Скoрoсть ветра над акватoриями крупных рек и oзёр, а также на вершинах хoлмoв на 2-5 м/с выше, чем в oбычных услoвиях.
Атмoсфернoе давление в разных тoчках местнoсти мoжет значительнo oтличаться oт давления на метеoстанции, в зависимoсти oт услoвий рельефа (при пoдъёме на 10 м давление пoнижается примернo на 1 мм рт.ст.).